Location: Charbonni�res
(45.9952°N, 2.9982°E)
Time: 08:36:28
(UTC+00:00)

METEOR 2-5 DEB - Visible Passes

Search period start: 21 June 2021 00:00
Search period end: 01 July 2021 00:00
Orbit: 816 x 828 km, 81.2° (Epoch: 20 June)

Date Brightness Start Highest point End Pass type
(mag) Time Alt. Az. Time Alt. Az. Time Alt. Az.
21 Jun ? 01:47:07 10° NNE 01:51:33 24° ENE 01:55:55 10° ESE visible
22 Jun ? 01:26:48 10° NNE 01:30:43 20° ENE 01:34:35 10° ESE visible
22 Jun ? 03:08:07 10° NNW 03:13:33 65° W 03:18:56 10° S visible
23 Jun ? 01:06:37 10° NNE 01:09:51 16° ENE 01:13:03 10° E visible
23 Jun ? 02:47:25 10° NNW 02:52:54 83° W 02:58:22 10° S visible
24 Jun ? 00:46:44 10° NE 00:48:57 12° ENE 00:51:10 10° E visible
24 Jun ? 02:26:45 10° N 02:32:14 78° ENE 02:37:42 10° SSE visible
25 Jun ? 02:06:07 10° N 02:11:33 62° ENE 02:16:57 10° SSE visible
26 Jun ? 01:45:32 10° N 01:50:50 48° ENE 01:56:06 10° SSE visible
27 Jun ? 01:25:00 10° N 01:30:05 38° ENE 01:35:09 10° SE visible
27 Jun ? 03:07:31 10° NNW 03:12:16 31° W 03:16:59 10° SSW visible
28 Jun ? 01:04:30 10° N 01:09:18 30° ENE 01:14:05 10° SE visible
28 Jun ? 02:46:39 10° NNW 02:51:42 39° W 02:56:43 10° SSW visible
29 Jun ? 00:44:04 10° NNE 00:48:29 24° ENE 00:52:53 10° ESE visible
29 Jun ? 02:25:49 10° NNW 02:31:06 50° W 02:35:57 12° SSW visible
30 Jun ? 00:23:43 10° NNE 00:27:38 20° ENE 00:31:32 10° ESE visible
30 Jun ? 02:05:03 10° NNW 02:10:28 65° W 02:14:56 15° S visible
